Regional Weather Roundup
Issued by NWS Sioux Falls, SD

Home | Current Version | Previous Version | Text Only | Print | Product List | Glossary On
Versions: 1 2 3 4 5 6 7 8 9 10 11 12 13 14 15 16 17 18 19 20 21 22 23 24 25 26 27 28 29 30 31 32 33 34 35 36 37 38 39 40 41 42 43 44 45 46 47 48 49 50
000
ASUS43 KFSD 201810
RWRFSD

WEATHER ROUNDUP FOR SE SOUTH DAKOTA/SW MINNESOTA/NW IOWA
NATIONAL WEATHER SERVICE SIOUX FALLS SD
100 PM CDT WED AUG 20 2014

NOTE: "FAIR" INDICATES FEW OR NO CLOUDS BELOW 12,000 FEET WITH NO
SIGNIFICANT WEATHER AND OR OBSTRUCTIONS TO VISIBILITY.


SDZ038>040-050-052>070-201900-
SOUTHEAST SOUTH DAKOTA

CITY           SKY/WX    TMP DP  RH WIND       PRES   REMARKS
CHAMBERLAIN    CLOUDY    79  70  73 SE12      29.73R
6HR MIN TEMP:  66; 6HR MAX TEMP:  82;

HURON          PTSUNNY   84  65  52 SE17G23   29.73F
6HR MIN TEMP:  68; 6HR MAX TEMP:  84;

MADISON        FAIR      77  70  78 SE12      29.81F
MITCHELL       MOSUNNY   85  70  60 SE10      29.73F
6HR MIN TEMP:  69; 6HR MAX TEMP:  85;

SIOUX FALLS    PTSUNNY   79  68  69 SE13      29.79F
6HR MIN TEMP:  68; 6HR MAX TEMP:  80; 6HR PCP:  0.01;

WINNER         LGT RAIN  81  69  67 SE13      29.72F
YANKTON        MOSUNNY   77  70  78 S20       29.76S
$$

MNZ071-072-080-081-089-090-097-098-201900-
SOUTHWEST MINNESOTA

CITY           SKY/WX    TMP DP  RH WIND       PRES   REMARKS
FAIRMONT       CLOUDY    79  64  61 SE10      29.86S
JACKSON        PTSUNNY   77  64  65 S10       29.88R
LUVERNE        PTSUNNY   77  66  69 SE12G18   29.83F
MARSHALL       PTSUNNY   81  64  57 SE16      29.82S
6HR MIN TEMP:  64; 6HR MAX TEMP:  82;

MONTEVIDEO     PTSUNNY   82  70  65 S8        29.82F
PIPESTONE      PTSUNNY   75  68  78 S10       29.84F
REDWOOD FALLS  SUNNY     82  66  58 SE13      29.83F
TRACY          MOSUNNY   82  67  60 SE12      29.84S
WINDOM         MOSUNNY   77  66  69 SE13      29.86R
WORTHINGTON    CLOUDY    75  16  10 S9        29.87S
$$

IAZ001>003-012>014-020>022-031-032-NEZ013-014-SDZ071-201900-
NORTHWEST IOWA

CITY           SKY/WX    TMP DP  RH WIND       PRES   REMARKS
CHEROKEE       LGT RAIN  70  70  99 SE13      29.82F
DENISON        CLOUDY    72  68  88 S9        29.85R
ESTHERVILLE    CLOUDY    72  67  84 S7        29.87R
LE MARS        CLOUDY    72  68  88 S15G22    29.80S
ORANGE CITY    CLOUDY    75  66  73 S10       29.81F
SHELDON        CLOUDY    73  70  88 S13       29.81F
SIOUX CITY     CLOUDY    72  69  90 SE9G17    29.81F
6HR MIN TEMP:  68; 6HR MAX TEMP:  74; 6HR PCP:  0.08;

SPENCER        LGT RAIN  73  67  81 SE9       29.85R
6HR MIN TEMP:  65; 6HR MAX TEMP:  73; 6HR PCP:  0.05;

STORM LAKE     CLOUDY    70  70 100 S9        29.89S
$$

ABBREVIATIONS USED IN REMARKS
   TC - TEMPERATURE IN CELSIUS
  WCI - WIND CHILL INDEX
   HX - HEAT INDEX
  VSB - VISIBILITY



USA.gov is the U.S. government's official web portal to all federal, state and local government web resources and services.